カタログに戻る

FENGYUN 1C DEB

LostSSO
NORAD 31501·DEBRIS·🇨🇳 China

打ち上げ May 10, 1999 から Taiyuan Satellite Launch Center

Loading…

次のパス (今後24時間)

TLE

古いSource: Space-Track

元期: Sep 22, 2022, 08:21 UTC

1 31501U 99025BWQ 22265.34828762  .00001236  00000-0  63951-3 0  9991
2 31501  98.8570 321.0056 0045312 137.4426 223.0274 14.16242034793363

AllMySatでFENGYUN 1C DEBをリアルタイム追跡

Download on the App Store